Simultaneous Nadir Overpasses (SNOs) Predictions

Prediction of SNOs between AQUA and NPP Satellite Orbit:

Table of predicted SNOs for the next 14.0 days since TLE Epoch: 11/14/2015
Index Date (AQUA) Time (AQUA) Lat,Lon (AQUA) SZA (AQUA ) Date (NPP) Time (NPP) Lat,Lon (NPP) SZA (NPP ) Distance(km) Time Diff (sec)
1 11/16/2015 20:10:50 72.52, 108.25 118.18 11/16/2015 20:10:02 72.52, 108.28 118.23 1.12 48
2 11/16/2015 20:59:42 -74.39, -80.17 63.64 11/16/2015 21:00:11 -74.39, -80.16 63.67 0.48 29
3 11/19/2015 12:26:59 73.36,-134.21 118.03 11/19/2015 12:26:39 73.36,-134.18 118.04 0.99 20
4 11/19/2015 13:15:55 -74.99, 37.23 63.59 11/19/2015 13:16:52 -74.99, 37.26 63.65 0.72 57
5 11/22/2015 03:54:26 -71.94, 171.36 60.01 11/22/2015 03:53:18 -71.95, 171.38 59.94 0.68 68
6 11/22/2015
